User: anonymous   Login
Location: Unspecified
(0.0000°N, 0.0000°E)
Time: 04:13:18
(UTC+02:00)
Language:

ITAMSAT 1 - Orbit

View from above orbital plane
View from above orbital plane
View from above satellite
View from above satellite

Ground track
Ground track

The orbit data is extracted from the following two-line orbital elements,

1 22826U 93061D   15148.52107886  .00000049  00000-0  36276-4 0  9996
2 22826 098.7014 098.7962 0009074 006.0354 354.0936 14.30197273130270
Epoch (UTC): 28 May 2015 12:30:21
Eccentricity: 0.0009074
inclination: 98.7014°
perigee height: 784 km
apogee height: 797 km
right ascension of ascending node: 98.7962°
argument of perigee: 6.0354°
revolutions per day: 14.30197273
mean anomaly at epoch: 354.0936°
orbit number at epoch: 13027

The dashed part of the orbit path shows where the satellite is in the earth's shadow,  

DLR